Back to catalog

FENGYUN 1C DEB

AliveSSO
NORAD 31519·DEBRIS·🇨🇳 China

Launched May 10, 1999 from Taiyuan Satellite Launch Center

Loading…

Next Passes (next 24 hours)

TLE

FreshSource: Space-Track

Epoch: Sep 13, 2026, 05:03 UTC

1 31519U 99025BXJ 26256.21078703  .00000484  00000-0  22672-3 0  9991
2 31519  98.5878 251.0906 0052549 163.0441 197.2509 14.23877674686702

Track FENGYUN 1C DEB in real time with AllMySat

Download on the App Store